Flag for United Kingdom Weather past 2 weeks in Stockport, England, United Kingdom

Now
57 °F

Sunny.


Feels Like: 57 °F
Forecast: 35 / 57 °F
Wind: 5 mph from North

Location: Manchester Airport


UV Index: 3 (Moderate)

Visibility: 10 mi


Pressure: 30.15 "Hg

Humidity: 36%

Dew point: 30 °F

Location of StockportLocation

Historic Weather in Stockport

°F

Stockport temperature yesterday

Maximum temperature yesterday: 54 °F (at 10:20 AM)
Minimum temperature yesterday: 41 °F (at 11:50 PM)
Average temperature yesterday: 49 °F

Past Weeks' High & Low Weather Summary

 TemperatureHumidityPressure
High61 °F (Apr 6, 1:50 PM)100% (Apr 4, 2:20 AM)30.45 "Hg (Apr 4, 2:20 AM)
Low34 °F (Apr 18, 4:20 AM)36% (Apr 18, 1:50 PM)29.53 "Hg (Apr 7, 1:50 PM)
Average49 °F77%30.04 "Hg
* Reported Apr 3 3:20 PM — Apr 18 3:50 PM, Stockport, Weather by CustomWeather, © 2014

Note: Actual official high and low records may vary slightly from our data, if they occured in-between our weather recording intervals... More about our weather records

Advertising

Historic Weather Conditions — Data for Previous 24 hours

 ConditionsComfort  
Time TempWeatherWind HumidityBarometerVisibility
3:50 PM
Apr 18
55 °FPassing clouds.5 mph41%30.18 "HgN/A
3:20 PM55 °FPassing clouds.2 mph36%30.18 "HgN/A
2:20 PM55 °FPassing clouds.3 mph36%30.18 "HgN/A
1:50 PM55 °FPassing clouds.7 mph36%30.18 "HgN/A
1:20 PM54 °FPassing clouds.10 mph38%30.18 "HgN/A
12:50 PM52 °FPassing clouds.7 mph44%30.18 "HgN/A
12:20 PM52 °FPassing clouds.7 mph44%30.21 "HgN/A
11:50 AM50 °FPassing clouds.6 mph47%30.21 "HgN/A
11:20 AM50 °FPassing clouds.8 mph47%30.21 "HgN/A
10:50 AM50 °FPassing clouds.7 mph50%30.21 "HgN/A
10:20 AM48 °FPassing clouds.8 mph54%30.21 "HgN/A
9:50 AM46 °FPassing clouds.7 mph57%30.21 "HgN/A
9:20 AM46 °FSunny.7 mph62%30.21 "Hg10 mi
8:50 AM45 °FSunny.8 mph66%30.18 "Hg10 mi
8:20 AM43 °FSunny.7 mph76%30.18 "Hg10 mi
7:50 AM43 °FFog.2 mph81%30.18 "Hg6 mi
7:20 AM37 °FFog.2 mph93%30.18 "Hg6 mi
6:50 AM36 °FFog.3 mph93%30.18 "Hg5 mi
6:20 AM34 °FFog.2 mph93%30.15 "Hg5 mi
5:50 AM34 °FFog.No wind93%30.15 "Hg4 mi
5:20 AM34 °FClear.2 mph93%30.15 "Hg10 mi
4:50 AM34 °FClear.3 mph93%30.15 "Hg10 mi
4:20 AM34 °FClear.No wind100%30.15 "Hg10 mi
3:50 AM36 °FClear.2 mph93%30.15 "Hg10 mi
3:20 AM36 °FChilly.No wind100%30.15 "Hg5 mi
2:50 AM36 °FChilly.2 mph93%30.12 "Hg5 mi
2:20 AM37 °FChilly.2 mph93%30.12 "Hg6 mi
1:50 AM37 °FChilly.2 mph93%30.12 "Hg5 mi
1:20 AM37 °FChilly.3 mph93%30.12 "Hg5 mi
12:20 AM41 °FQuite cool.5 mph87%30.12 "Hg6 mi
11:50 PM
Apr 17
41 °FClear.3 mph87%30.12 "Hg10 mi
11:20 PM43 °FClear.8 mph81%30.12 "Hg10 mi
10:50 PM43 °FQuite cool.6 mph81%30.12 "HgN/A
10:20 PM45 °FClear.7 mph76%30.12 "Hg10 mi
9:50 PM45 °FClear.8 mph76%30.12 "Hg10 mi
9:20 PM45 °FClear.8 mph76%30.09 "Hg10 mi
8:50 PM46 °FPassing clouds.7 mph76%30.09 "HgN/A
8:20 PM46 °FSunny.8 mph82%30.09 "Hg10 mi
7:50 PM48 °FPassing clouds.10 mph82%30.09 "HgN/A
7:20 PM48 °FScattered clouds.13 mph82%30.07 "HgN/A
6:50 PM48 °FScattered clouds.14 mph82%30.07 "HgN/A
5:50 PM50 °FSprinkles. Broken clouds.16 mph76%30.07 "Hg5 mi
5:20 PM52 °FBroken clouds.20 mph72%30.07 "HgN/A
4:50 PM52 °FPartly sunny.15 mph72%30.07 "HgN/A
4:20 PM52 °FPartly sunny.20 mph72%30.07 "HgN/A
Weather by CustomWeather, © 2014

See weather overview